Theta_e
319 319 319 320 320 320 320 319 319 318 319 319 316 315 315 315 316 318 325 329 334 338 339 337 336 337 336 338 338 341 342 345 343 345 347 345 348 348 347 349 348 348 343 345 344
319 319 319 319 320 320 320 320 319 319 319 320 316 315 315 316 317 325 324 330 337 337 336 334 337 338 337 337 338 342 341 342 342 342 344 346 347 348 348 348 349 348 346 344 343
317 318 318 319 319 320 320 320 320 319 318 319 317 316 316 318 328 326 327 336 338 337 332 333 335 338 338 337 338 339 341 342 342 343 344 345 345 345 347 348 348 347 347 344 342
317 317 317 318 318 319 320 320 320 319 319 319 318 317 321 320 333 332 332 337 336 335 332 334 337 338 339 337 336 337 338 341 344 344 343 343 344 345 345 346 347 345 345 343 343
317 317 317 317 318 318 319 320 320 320 319 319 318 320 324 331 332 327 335 335 335 334 332 338 338 338 337 336 336 337 340 343 344 344 345 344 344 346 346 347 346 345 346 346 344
318 318 317 317 317 318 318 319 320 320 319 320 319 321 326 333 331 327 333 335 333 332 336 337 337 337 336 336 338 338 341 343 345 345 346 345 346 345 346 347 346 346 347 346 346
318 318 318 317 317 318 318 319 320 320 319 320 320 320 329 331 329 328 330 332 333 333 337 335 335 336 337 338 338 338 342 345 346 347 347 332 340 347 346 347 347 347 347 348 348
319 318 318 318 317 318 318 318 319 320 319 320 320 320 331 329 328 329 331 332 333 333 334 334 334 337 337 338 338 340 340 349 345 347 349 348 354 348 347 347 347 347 348 348 349
320 320 318 318 318 318 318 318 319 319 320 322 324 328 330 327 327 329 331 333 334 334 334 334 335 338 337 338 339 339 344 344 344 345 347 348 352 349 347 347 348 348 347 348 351
319 319 319 318 317 318 318 318 319 319 324 325 326 330 327 327 329 330 332 334 335 336 335 335 337 338 338 339 340 341 343 338 338 345 345 345 345 351 350 348 348 348 347 348 351
318 319 319 318 317 318 318 322 325 327 328 328 327 327 326 328 328 331 333 332 337 339 340 338 339 340 338 338 340 339 338 337 338 342 343 340 341 349 349 350 349 350 349 350 350
317 319 319 318 318 318 318 326 327 327 329 326 329 325 327 327 327 330 333 337 338 341 339 340 339 339 338 336 336 337 338 337 337 341 342 341 339 343 349 349 349 350 351 351 350
318 319 319 318 318 318 322 325 325 326 327 326 326 327 326 328 328 329 333 337 340 340 340 340 338 340 337 336 336 337 337 336 337 341 340 338 339 345 349 348 348 350 351 350 349
318 319 319 318 322 321 324 325 325 327 331 328 327 326 325 326 328 328 329 335 338 341 340 339 338 339 338 336 337 337 334 333 335 338 349 345 342 343 349 349 349 349 350 349 348
320 319 319 317 317 321 326 324 325 327 335 329 326 325 325 327 327 328 328 332 336 336 340 339 339 338 338 337 337 337 334 334 336 338 338 336 337 345 349 349 351 350 349 348 346
320 319 318 319 318 321 322 324 327 329 330 330 327 328 327 326 328 328 327 328 330 334 335 338 337 338 338 337 337 335 334 335 336 337 337 336 333 338 346 342 353 351 350 347 348
320 317 319 319 324 321 323 326 330 331 331 331 328 327 328 327 329 328 328 327 328 330 332 334 336 334 334 336 335 334 336 337 341 339 339 337 332 342 344 350 349 349 348 348 346
318 320 322 320 320 319 324 329 331 328 329 330 328 327 327 328 329 328 328 328 328 328 330 331 332 334 333 334 335 335 335 336 340 336 335 337 335 345 345 346 346 346 347 346 350
321 326 327 326 318 321 326 330 329 329 331 329 328 328 327 328 328 328 329 329 329 329 328 329 328 330 332 332 334 336 335 334 332 333 331 332 343 347 348 348 347 349 350 353 350
324 328 329 325 322 323 328 328 329 328 329 327 330 328 328 329 328 329 329 329 329 329 329 330 329 330 331 333 334 335 334 333 331 333 335 336 340 352 352 352 352 350 350 351 351
324 331 326 323 322 324 328 328 329 326 328 328 330 331 329 329 329 329 329 329 329 329 328 329 331 332 332 333 333 334 334 332 332 335 336 338 348 343 350 350 352 350 350 351 352
328 334 325 323 325 325 327 328 325 327 326 326 327 329 331 332 329 328 328 329 328 328 328 329 332 335 334 335 335 335 334 333 333 335 341 342 344 342 340 345 349 350 350 351 349
332 331 325 324 329 328 327 327 326 326 327 328 328 329 332 332 329 329 329 329 327 328 329 329 331 335 333 336 335 334 333 334 335 334 345 344 346 342 342 341 348 350 350 351 347
332 335 327 323 326 330 328 329 327 326 326 327 328 332 332 332 331 330 329 329 327 328 326 330 331 334 334 335 334 333 334 335 334 335 337 339 342 344 344 344 348 350 351 351 344
331 335 334 330 329 329 331 331 332 330 329 329 329 331 334 335 334 331 329 331 330 327 327 329 331 332 333 335 334 334 334 334 335 334 334 336 336 337 341 344 347 350 352 348 342
325 329 332 332 334 334 328 332 332 332 334 332 332 333 334 337 334 332 331 333 334 334 331 329 331 332 332 333 333 332 331 332 332 333 333 336 336 340 340 341 345 349 352 347 344
325 325 326 332 332 335 335 334 334 333 334 335 336 336 337 336 340 338 333 332 334 337 335 332 329 332 333 332 332 333 332 332 332 333 334 336 339 341 342 342 343 347 350 348 345
Wind_Speed
11 11 11 12 12 13 13 14 14 15 15 14 10 6 3 1 5 7 8 6 9 9 6 3 5 5 6 5 4 6 3 11 16 13 10 5 14 8 10 13 11 11 22 22 22
12 12 12 13 13 14 14 14 14 14 15 13 10 5 1 2 6 9 11 12 11 10 5 6 7 5 11 4 2 9 12 10 14 15 11 11 11 8 9 12 12 14 18 21 21
13 14 13 14 14 14 14 14 13 13 13 12 9 4 0 5 5 10 14 13 13 10 5 7 6 8 11 7 4 4 10 8 18 17 12 12 11 7 2 9 13 18 21 22 21
14 15 15 15 14 14 14 15 13 13 12 11 7 3 2 9 3 9 15 15 13 10 6 7 7 13 11 8 6 11 8 8 10 7 13 11 15 15 14 12 18 20 21 21 18
14 15 15 16 15 15 14 14 13 12 10 9 5 1 3 9 5 11 17 15 12 7 5 7 10 9 6 12 8 11 9 7 7 10 10 11 15 14 15 16 20 21 18 18 17
15 16 16 16 16 15 14 13 12 11 9 6 3 2 4 13 4 11 17 15 9 7 5 6 2 7 8 7 3 7 10 9 8 8 8 12 7 14 12 16 19 18 17 16 17
16 16 17 17 16 15 14 12 11 9 8 4 2 3 7 3 7 13 15 14 9 7 6 1 3 11 6 8 5 9 9 9 9 8 6 50 23 12 16 16 16 14 13 12 13
16 17 17 17 16 15 13 11 9 7 6 3 3 4 5 6 8 14 16 13 11 7 3 2 4 6 13 8 8 14 14 10 7 6 6 7 14 15 17 15 14 13 12 11 9
17 17 18 18 17 15 12 10 8 5 4 3 1 4 7 11 9 15 17 16 12 8 5 3 6 14 8 15 16 11 8 18 10 6 1 6 12 16 14 14 14 14 12 10 7
18 18 18 18 17 14 10 8 6 4 3 4 6 6 10 15 14 16 17 14 15 12 9 10 13 14 15 15 5 17 17 6 2 8 5 8 3 11 12 12 14 14 13 12 18
19 19 18 18 17 12 6 5 4 6 13 13 8 8 11 11 10 16 19 15 18 15 16 19 15 16 11 12 13 11 7 5 4 6 6 9 3 13 14 14 13 13 11 9 8
19 19 18 18 16 9 1 4 4 5 9 18 11 13 6 12 15 19 21 21 19 17 21 15 16 4 1 2 7 4 11 7 4 3 8 6 8 8 13 14 15 16 11 9 10
20 20 17 17 12 3 5 4 2 6 8 18 18 19 17 13 17 23 23 26 20 20 21 21 18 14 9 8 12 14 8 7 3 6 9 10 11 9 12 12 11 9 12 10 11
20 20 18 14 4 4 3 6 3 5 6 15 15 16 22 17 18 22 25 24 14 22 22 13 11 9 10 12 11 5 7 3 8 11 11 34 3 22 17 11 9 11 10 11 9
21 20 18 15 8 4 2 2 4 3 6 12 16 11 19 22 15 15 21 28 20 19 19 15 20 17 13 15 11 4 6 7 8 14 7 10 7 13 12 11 10 10 11 10 10
21 22 17 12 7 9 5 4 2 7 5 9 12 14 20 24 15 22 19 20 21 18 20 20 16 16 12 16 13 7 10 10 11 14 11 5 3 4 9 4 12 10 10 8 8
22 21 15 8 2 6 6 6 7 10 6 10 13 19 20 19 16 13 19 20 16 19 19 19 22 11 11 16 6 11 17 11 9 4 12 5 3 10 10 11 10 14 13 11 9
22 16 8 8 9 9 8 9 10 2 5 4 9 19 20 20 17 18 19 18 21 18 13 17 18 21 18 17 17 15 19 11 9 11 3 8 1 8 12 15 13 13 14 12 12
19 5 2 4 12 11 13 11 9 7 1 5 10 17 19 20 13 16 20 19 20 21 17 15 16 21 22 19 21 17 13 19 17 15 7 6 16 13 14 15 14 13 11 13 14
12 4 4 5 10 10 10 16 7 4 6 7 11 12 18 18 16 18 16 17 18 20 20 7 10 18 20 22 22 18 8 12 9 11 8 4 3 4 13 15 15 15 16 18 17
2 8 3 6 10 13 10 16 11 8 8 7 12 9 17 15 17 15 16 9 18 18 19 17 13 14 18 14 17 14 14 14 17 9 6 10 2 11 13 15 14 17 19 20 20
8 5 6 10 12 16 12 17 4 9 10 8 7 13 12 13 17 18 16 15 17 20 19 19 11 16 18 21 21 9 10 17 11 17 7 15 11 6 5 16 18 20 20 20 18
8 2 5 11 7 9 13 5 10 14 11 8 9 10 10 13 13 16 13 8 6 16 16 17 11 12 18 13 9 10 14 16 15 11 12 13 9 8 7 6 20 21 20 21 19
7 5 8 13 16 14 4 9 14 16 15 12 9 10 10 13 12 13 13 9 8 13 3 14 19 14 15 14 16 19 19 13 16 11 4 5 5 16 11 7 17 20 24 22 22
7 3 6 6 11 9 3 9 7 9 13 9 12 16 13 12 13 12 17 16 11 8 9 14 16 19 13 7 6 15 12 10 11 15 16 9 6 9 11 8 12 21 22 24 25
8 6 6 14 3 7 6 12 10 7 3 13 15 12 14 16 12 14 16 14 14 14 14 17 16 19 19 18 11 12 12 13 11 12 17 7 14 16 10 8 15 23 25 26 26
8 6 7 4 12 9 5 5 3 4 14 15 8 7 12 13 13 11 18 21 18 14 16 16 14 11 14 17 12 16 16 19 15 16 12 11 9 3 8 4 12 20 25 26 25
Wind_Direction
350 350 346 345 343 342 343 346 349 349 350 348 347 342 324 225 180 178 200 200 194 181 189 205 253 255 266 232 259 262 50 55 58 71 102 59 80 65 100 98 77 19 135 139 148
344 343 340 338 337 336 336 341 344 346 347 349 349 345 345 180 182 217 216 198 178 182 189 222 236 227 224 166 231 278 67 70 61 68 84 64 71 112 116 129 113 94 112 140 149
341 338 335 333 331 330 330 332 337 342 345 348 349 347 87 153 187 177 186 170 177 186 235 263 263 244 227 191 163 20 79 87 68 70 84 87 78 64 143 101 137 130 138 149 155
343 337 333 329 326 325 325 326 330 335 340 345 343 349 168 185 197 172 169 172 179 181 265 263 232 220 213 137 144 109 78 72 94 121 83 87 81 72 76 93 124 136 140 148 158
346 341 335 328 324 320 320 319 323 327 333 338 334 334 180 217 107 173 166 177 175 192 245 256 232 247 157 116 171 104 100 116 125 110 96 85 76 83 91 112 130 132 138 146 155
348 344 338 331 324 319 314 313 317 321 325 327 313 246 238 243 131 167 173 179 176 205 222 243 329 285 121 136 80 109 100 125 160 116 113 108 108 107 113 127 135 148 150 156 154
348 344 340 334 326 319 311 305 311 317 315 308 270 260 252 318 160 173 176 182 191 209 240 211 263 233 172 139 135 154 149 159 154 160 132 81 323 117 140 139 141 159 173 165 173
345 343 339 334 328 320 309 301 303 308 303 277 253 236 265 162 171 179 182 189 202 207 240 276 258 277 250 93 193 221 186 79 153 170 166 178 205 141 149 148 154 159 172 183 193
340 340 337 334 329 321 308 298 292 290 278 234 249 219 222 182 187 185 187 191 193 198 220 252 241 241 190 219 202 218 111 266 134 186 330 263 134 155 163 168 167 172 187 205 147
335 336 334 332 329 322 308 294 290 265 230 225 238 240 216 198 185 187 189 202 196 197 204 227 223 220 217 222 195 300 164 158 354 148 233 257 161 148 182 191 170 206 201 197 174
331 332 331 332 329 322 303 298 260 225 212 215 207 223 147 170 173 189 188 193 203 209 220 209 233 227 289 57 145 262 14 293 107 90 276 262 284 148 183 199 204 219 205 206 220
329 329 329 330 329 316 263 250 352 344 279 222 227 222 194 192 188 194 186 195 202 213 224 210 242 19 351 14 280 246 243 218 112 201 236 208 245 157 181 204 207 194 200 218 214
327 327 327 332 330 315 265 270 276 338 252 212 210 214 206 205 212 194 192 202 198 219 220 236 207 182 205 198 246 243 273 31 291 196 231 286 223 336 179 196 207 200 197 217 221
327 324 324 330 349 300 262 222 284 303 268 171 198 214 204 201 227 201 202 204 221 225 231 223 198 214 205 243 258 85 315 250 265 259 108 258 172 207 167 173 186 192 209 216 215
326 319 321 315 285 258 215 229 287 228 258 139 157 173 186 200 181 209 198 216 225 227 236 210 238 184 242 231 263 322 314 288 246 268 300 210 265 148 145 158 173 181 194 199 187
325 315 315 308 267 218 248 262 225 230 243 153 159 194 191 205 184 188 201 220 224 242 237 259 224 244 224 229 252 304 269 242 238 248 259 151 27 137 153 77 128 159 186 168 169
324 313 304 260 180 228 215 207 222 245 90 155 179 179 191 192 196 163 192 200 214 215 225 220 247 241 251 225 193 221 244 230 298 227 290 92 318 82 90 97 145 166 170 165 157
324 315 293 233 216 198 198 225 251 252 202 120 177 174 197 188 197 191 197 203 214 219 212 215 211 225 216 231 205 220 249 268 214 290 85 184 225 106 113 130 137 155 169 177 168
329 328 266 267 195 189 212 226 221 250 16 224 207 187 201 191 209 203 207 211 204 225 234 207 227 192 217 206 243 236 224 275 301 284 240 245 107 107 129 146 154 151 155 164 158
331 236 194 231 188 182 230 247 278 317 346 252 226 216 197 202 198 200 197 223 224 202 243 252 222 186 194 198 220 265 328 235 226 258 280 296 82 39 166 162 165 157 159 153 153
295 234 180 165 165 207 229 237 233 187 227 259 251 210 224 202 195 217 227 203 220 184 222 252 249 162 174 204 199 207 242 254 279 262 276 252 200 224 174 165 168 165 160 157 151
279 244 163 165 201 217 233 252 54 266 208 252 291 293 282 228 196 228 225 210 194 218 199 229 227 171 190 206 232 284 260 231 226 234 30 318 143 146 117 153 158 163 162 159 158
277 40 182 189 238 212 240 268 252 251 241 233 233 232 252 270 195 223 202 118 185 214 201 215 241 202 192 174 209 239 247 267 272 259 181 201 128 98 113 128 151 163 170 159 167
273 205 158 213 266 285 209 242 227 204 255 273 266 288 244 245 226 205 211 143 170 227 166 237 234 251 187 205 197 205 235 213 272 275 39 34 281 164 117 115 147 163 171 169 175
248 339 6 185 226 238 282 303 275 236 207 224 235 243 238 226 221 231 211 144 196 168 209 236 235 252 255 243 263 191 205 219 245 286 299 307 6 325 77 135 169 167 174 175 180
311 337 336 283 267 256 204 235 251 236 277 228 236 209 237 255 198 199 199 170 188 182 214 213 242 233 256 237 200 254 251 274 253 246 267 299 293 64 87 141 173 177 180 183 184
339 297 283 253 243 237 272 121 342 329 254 263 332 316 248 259 340 296 204 189 200 184 203 216 232 218 242 238 230 232 248 264 251 257 240 260 81 36 144 177 197 190 183 187 189